Theta_e
310 311 315 317 323 321 314 313 315 317 316 313 316 316 315 317 313 313 314 312 311 310 314 313 310 310 309 308 306 305 306 304 303 304 302 302 302 302 302 302 302 302 301 299 299 300 299 299 299 298 298 298 298 297 297 297 296 296 296 296 296 296 295 295 295 295 295 294 294 293 293 292 292 291 290 290 289 289 288 288 287 287 286 286 285 285
309 311 318 319 319 314 311 314 313 313 314 313 314 313 315 317 314 313 313 312 310 308 315 316 310 309 307 305 305 305 305 303 303 303 301 301 301 300 300 300 300 300 300 299 299 299 299 299 298 298 297 297 297 296 296 296 295 296 295 295 295 295 295 295 295 294 294 294 294 294 293 293 292 292 291 290 290 289 289 288 287 287 286 285 285 284
312 315 317 314 311 311 313 315 313 313 312 312 314 313 315 317 315 313 312 311 309 306 313 317 309 307 307 305 305 303 303 303 302 302 301 301 300 300 300 299 299 299 299 299 298 298 298 298 298 297 297 296 296 296 295 295 294 294 294 294 294 294 294 294 294 294 294 294 294 293 293 293 292 292 291 290 290 289 288 288 287 287 286 285 285 284
318 320 313 310 312 312 313 314 313 315 316 314 312 312 316 317 313 314 314 311 310 309 310 311 308 308 307 305 304 302 303 303 302 301 301 300 300 300 300 299 299 299 299 299 298 296 297 297 297 296 296 296 295 295 294 294 293 293 292 292 292 292 293 293 293 293 293 293 293 293 292 292 291 290 290 289 289 288 288 287 287 286 286 285 285 284
319 315 308 310 312 310 311 314 313 312 319 322 315 312 316 314 309 312 314 310 311 314 311 308 311 314 308 304 304 303 302 302 301 301 300 300 300 300 300 299 299 300 300 300 299 297 296 296 296 296 296 296 295 295 294 293 293 292 291 290 290 290 290 291 291 292 292 292 292 292 292 291 290 290 289 289 288 288 287 287 286 286 286 285 285 284
316 308 307 312 312 310 310 314 316 312 315 319 314 310 311 310 308 310 313 310 311 314 310 306 313 318 311 305 305 303 302 301 301 301 300 300 300 299 299 299 299 300 300 299 299 297 296 296 296 296 296 295 295 295 294 294 293 292 292 291 290 290 289 290 290 290 291 291 291 291 291 290 290 290 289 289 289 288 288 287 287 286 285 285 285 284
312 307 308 312 312 312 312 313 315 313 312 312 310 308 307 307 307 308 310 308 310 312 307 305 309 314 314 309 305 303 302 302 301 301 301 299 299 299 299 299 299 300 300 299 298 296 295 296 296 295 296 295 295 295 294 293 293 292 292 291 290 290 290 290 290 289 289 290 290 290 290 290 289 289 289 289 288 288 287 287 287 286 285 285 284 284
311 310 310 311 310 311 314 313 310 311 313 311 309 307 307 307 307 308 307 306 311 310 308 310 307 308 314 311 304 302 302 302 302 301 300 299 299 299 299 300 299 300 300 301 301 298 295 296 296 295 296 295 295 295 294 294 293 292 292 291 291 290 290 290 290 289 289 289 289 289 289 289 289 288 288 288 288 287 287 287 286 286 286 285 284 284
311 312 313 311 309 311 314 311 307 308 309 310 309 307 306 305 305 306 306 308 310 307 311 316 308 307 315 309 302 303 304 303 302 301 300 300 300 300 300 300 300 300 300 300 300 298 296 296 297 296 296 296 295 295 294 294 293 292 292 291 291 291 290 290 290 290 289 289 289 289 289 288 288 288 288 288 287 287 287 286 286 286 285 285 284 283
310 310 312 310 308 310 310 307 306 307 307 308 307 306 307 306 305 305 305 308 308 307 316 317 308 309 315 308 302 304 304 303 302 300 300 301 301 301 300 300 300 300 301 300 297 296 296 297 296 296 296 296 295 295 294 294 293 293 292 292 291 291 291 290 290 290 290 289 289 289 288 288 288 288 288 287 287 287 286 286 286 285 285 285 284 283
309 308 309 309 308 307 305 304 306 306 306 306 305 308 311 309 307 307 307 308 309 314 318 312 307 310 312 308 303 303 304 303 302 300 300 300 300 301 300 300 300 300 300 300 297 295 296 296 295 294 294 294 295 295 294 294 293 293 292 292 292 292 291 291 290 290 290 289 289 289 288 288 288 287 287 287 287 286 286 286 285 285 285 284 284 283
312 310 310 308 306 305 304 305 308 308 306 306 307 309 310 311 310 309 312 312 313 319 314 306 307 310 311 309 302 301 302 302 302 302 301 300 300 300 300 300 300 300 301 301 300 296 294 294 294 293 293 293 293 294 295 294 293 293 292 292 292 291 291 291 291 290 290 289 289 289 289 288 288 287 287 286 286 286 286 285 285 285 285 284 283 283
314 311 310 307 305 304 305 308 313 311 308 309 311 310 312 316 312 311 316 315 314 317 309 304 307 308 308 305 300 300 301 301 302 303 302 301 300 300 300 300 300 300 301 300 300 298 293 292 292 292 292 292 292 293 294 293 292 291 291 291 291 291 291 291 290 290 290 290 289 289 289 289 288 287 286 286 285 285 285 285 285 284 284 284 284 283
315 312 309 308 307 304 303 306 309 309 308 309 308 308 313 314 308 310 316 313 313 314 306 302 304 308 308 301 299 301 300 301 303 302 303 302 301 301 300 301 301 299 299 299 298 297 292 291 292 292 291 291 291 292 292 291 291 290 290 290 290 290 290 290 289 289 289 289 289 289 288 288 288 287 287 286 285 285 285 284 284 284 284 284 283 283
312 313 309 308 307 305 304 304 303 304 307 307 305 307 313 310 306 310 314 310 313 315 309 304 303 310 311 301 300 302 300 301 303 302 303 301 301 302 300 301 300 297 297 298 296 294 291 291 291 291 291 291 291 291 290 290 290 289 290 290 290 290 289 289 289 288 288 288 288 288 287 287 287 287 287 286 286 285 285 285 284 284 284 283 283 283
309 312 308 305 303 302 304 304 302 304 306 305 306 310 313 310 308 311 312 309 309 310 311 310 304 305 305 301 300 301 301 301 301 301 301 300 301 302 300 299 297 295 295 295 294 292 290 291 291 290 290 290 290 289 289 288 288 288 289 289 289 289 289 288 288 288 288 288 288 287 287 287 286 287 286 286 286 286 285 285 284 284 284 284 284 283
309 311 307 304 303 301 301 303 303 304 304 304 307 309 308 305 305 308 311 310 307 306 309 311 305 301 301 301 300 301 301 300 299 298 298 298 299 298 297 296 295 294 293 293 292 291 290 290 290 289 289 288 288 287 287 287 287 287 287 288 288 288 288 288 288 288 288 287 288 287 287 287 286 286 286 286 286 286 286 285 285 285 284 284 284 283
305 310 310 305 304 303 300 301 304 303 302 304 307 306 303 303 304 306 309 311 311 309 308 309 306 303 303 302 300 300 300 298 297 297 296 296 296 295 294 294 293 292 292 291 291 290 290 289 288 288 287 287 287 287 286 286 286 287 287 287 287 287 287 287 287 287 287 287 287 287 287 287 286 286 286 286 286 286 286 285 285 285 285 285 284 283
303 308 311 304 303 305 301 302 305 305 302 303 304 303 302 304 307 308 308 310 310 308 308 311 310 305 304 303 300 299 297 296 295 295 295 294 293 293 293 292 292 292 291 290 290 289 289 288 287 287 286 286 286 286 286 286 286 287 287 286 286 286 286 286 287 286 286 286 286 286 286 286 286 286 286 286 286 286 285 285 285 285 285 285 285 284
305 306 308 306 303 303 303 304 307 308 305 304 305 305 305 306 307 309 308 307 308 307 307 311 311 304 301 301 299 296 295 294 294 293 293 293 292 292 291 291 291 290 289 289 289 288 287 286 286 286 286 286 286 286 286 286 286 286 286 286 285 286 286 286 286 285 285 285 285 285 285 286 286 286 285 286 285 285 285 285 285 284 284 285 285 284
307 305 308 310 306 303 305 305 305 307 306 307 309 307 306 309 309 309 306 304 305 306 306 309 308 302 297 298 296 294 294 293 292 292 291 291 291 290 290 290 290 289 289 289 288 287 286 286 286 285 285 285 285 286 286 285 286 285 285 285 285 285 285 285 285 284 283 283 284 284 284 285 285 285 285 285 285 285 285 285 284 284 284 284 284 284
305 305 305 308 307 305 305 301 300 302 302 305 307 304 304 308 309 306 306 306 305 305 306 307 306 301 296 295 294 293 293 292 291 291 290 290 290 289 289 289 289 289 289 288 287 286 285 285 285 285 285 285 284 284 284 284 284 284 284 284 283 284 284 284 283 282 282 282 282 283 283 284 285 285 285 284 284 284 283 283 283 284 283 283 283 283
301 303 303 306 306 303 302 299 298 299 300 303 303 302 305 309 307 304 307 308 305 304 304 305 305 301 295 294 293 292 292 291 290 290 289 289 289 288 288 288 288 288 288 287 286 285 285 284 284 284 283 283 283 283 283 283 283 282 282 282 282 282 282 282 281 281 281 281 281 281 282 282 283 283 282 282 281 281 281 281 282 282 283 282 283 283
300 302 303 308 310 305 301 300 299 299 301 303 302 302 305 307 304 302 304 305 304 303 302 302 304 301 294 292 292 291 291 290 289 289 288 288 288 287 287 287 287 288 287 286 285 284 284 284 283 283 282 282 282 281 281 281 280 280 280 281 281 281 280 280 279 279 279 279 279 280 280 281 281 280 280 279 279 279 279 279 281 282 283 283 283 283
300 303 305 308 311 310 308 307 306 305 303 302 302 302 303 304 304 303 303 304 304 302 299 300 306 304 295 291 290 289 289 289 288 288 288 287 287 287 286 286 287 287 286 285 284 283 283 282 282 281 281 281 280 279 279 279 279 280 280 280 279 278 278 277 277 277 277 277 278 278 279 279 278 278 277 277 277 278 278 280 281 282 283 282 282 281
302 305 304 305 306 307 308 308 308 306 302 302 303 302 301 302 302 302 302 303 303 301 299 299 304 302 294 290 289 288 288 288 287 287 287 287 287 287 286 286 287 286 285 284 283 282 282 281 281 280 279 279 278 278 279 279 279 279 278 278 277 277 276 276 276 275 275 276 276 277 277 277 276 276 277 277 278 278 278 279 280 281 281 282 281 281
302 305 304 304 305 305 306 306 304 302 300 302 302 301 302 302 300 301 302 301 300 300 300 299 297 296 292 289 288 288 287 287 287 286 287 287 287 286 285 285 286 284 283 282 282 281 280 280 279 279 278 278 278 278 278 278 277 277 276 276 276 276 275 275 274 274 274 274 275 275 275 274 274 274 274 275 276 277 277 278 279 279 279 280 281 281
303 306 303 302 304 305 305 303 301 300 299 298 298 298 301 301 300 301 301 298 297 298 300 298 294 293 292 288 287 287 287 286 286 286 287 286 285 284 284 284 284 282 282 281 280 280 279 279 278 278 277 277 277 277 276 276 275 275 275 275 274 274 274 273 272 272 272 273 274 274 273 272 272 271 271 273 275 275 276 276 277 276 276 277 278 279
303 304 302 301 302 304 303 301 300 298 296 295 294 295 296 297 297 297 296 295 294 295 296 294 293 292 290 286 286 286 286 286 286 286 286 285 284 284 283 283 282 281 281 280 279 279 278 278 277 277 277 276 276 276 275 274 274 274 273 273 273 273 272 271 271 271 272 272 273 272 272 270 270 269 270 272 274 275 274 274 274 274 274 275 275 276
300 304 305 301 302 304 303 303 301 296 294 293 293 293 292 292 293 293 293 293 292 293 293 292 292 291 288 286 286 285 285 285 285 285 285 283 283 283 282 281 281 280 279 279 278 278 277 277 277 276 276 276 275 274 274 273 273 272 272 272 272 272 271 270 270 271 271 272 271 270 269 268 268 268 269 272 274 274 273 273 272 272 273 274 274 275
297 302 304 301 303 306 303 301 298 293 293 292 292 292 291 291 292 292 292 292 292 293 292 291 292 291 287 285 285 284 284 285 285 284 283 282 282 282 281 280 280 279 278 278 277 277 277 277 276 275 275 275 274 273 272 272 272 271 271 271 271 271 270 269 270 271 271 270 269 268 267 267 267 268 269 272 273 272 272 271 271 272 273 273 273 274
299 302 304 302 304 306 302 298 295 293 294 294 292 291 291 291 291 291 291 291 291 292 292 290 290 288 286 285 284 284 284 284 284 283 282 282 282 281 280 279 279 278 278 277 277 276 276 276 275 274 274 273 272 272 271 271 271 271 271 270 270 270 269 269 270 270 269 267 266 266 266 266 266 268 270 271 271 271 271 271 271 272 272 272 273 273
300 300 303 303 303 305 303 299 296 295 298 298 293 291 291 290 290 290 291 289 288 289 290 288 287 286 285 284 284 284 283 283 283 282 281 281 280 279 279 279 278 278 277 276 276 276 275 274 274 273 273 272 271 271 270 270 270 270 270 269 269 268 268 268 269 268 267 266 265 265 265 265 266 268 269 269 269 269 269 270 270 270 271 272 272 272
301 300 302 301 301 306 306 300 298 301 301 296 291 290 291 291 289 290 290 287 285 286 287 286 286 285 284 284 283 283 283 283 282 281 281 281 279 279 279 278 278 277 276 276 276 275 273 273 272 272 272 271 270 270 269 269 269 269 268 268 267 267 267 267 267 266 265 265 264 264 264 265 266 267 267 266 266 266 266 267 267 268 269 270 271 271
301 300 302 301 300 305 305 302 304 306 299 292 289 290 290 290 290 289 289 286 285 285 285 285 285 284 284 283 282 282 282 282 281 281 281 280 279 278 278 278 277 276 275 275 274 273 272 272 272 271 271 270 269 269 268 268 268 267 267 266 266 266 266 266 265 264 264 264 263 264 264 264 265 264 264 264 264 264 264 265 265 266 267 268 269 269
298 299 300 301 302 303 302 301 302 299 293 290 290 290 289 290 290 289 288 286 284 285 285 284 284 283 282 282 281 281 281 281 280 281 280 279 278 278 277 276 275 275 274 274 273 272 271 271 271 270 270 269 268 268 267 267 266 266 266 265 265 265 265 264 264 263 263 263 263 263 264 263 263 262 262 262 262 263 263 264 265 265 266 266 267 268
298 299 299 300 302 301 300 300 299 295 293 292 290 289 289 289 289 288 289 287 284 284 284 283 283 282 281 280 280 280 280 279 279 280 279 278 277 276 276 275 275 274 274 272 272 271 271 270 270 270 269 268 267 267 266 266 266 265 265 265 265 264 264 263 263 263 262 263 263 263 262 261 261 261 261 261 262 263 263 263 263 263 264 265 266 267
296 298 299 300 300 300 299 299 298 297 296 292 288 287 288 289 288 288 289 288 285 283 283 282 281 281 280 280 279 279 278 278 277 278 278 277 276 275 275 274 274 273 273 271 271 270 270 270 269 268 268 267 266 266 266 265 265 264 264 264 264 263 262 262 262 262 262 262 262 261 260 260 260 261 261 261 261 261 261 261 261 261 262 263 264 265
295 296 299 301 299 297 297 297 298 299 296 289 285 286 287 288 287 287 288 288 285 282 282 281 280 280 279 279 278 278 277 277 276 277 277 276 275 275 274 273 273 272 272 271 270 270 269 269 268 267 267 266 266 265 265 265 264 263 263 263 262 262 262 262 261 261 261 261 260 260 259 259 260 260 260 260 260 259 259 259 259 260 261 261 262 263
297 297 298 297 296 295 296 297 297 296 292 286 285 285 286 286 287 288 289 288 284 282 281 280 279 279 279 278 277 277 276 276 276 276 275 275 274 274 273 272 272 272 271 270 270 269 268 268 267 267 266 265 265 265 264 264 263 262 262 262 261 261 261 261 261 260 260 259 259 259 259 259 259 259 259 258 258 258 258 258 258 259 260 260 261 262
295 296 295 294 294 295 295 295 295 293 288 284 284 285 286 286 288 288 288 285 283 281 280 279 278 279 278 277 276 276 275 275 275 274 274 274 274 273 272 271 271 270 270 269 269 268 267 267 266 266 265 265 264 264 264 263 262 262 261 261 261 261 260 260 260 259 259 258 258 257 258 258 258 258 257 257 257 257 257 257 258 259 259 260 261 261
292 294 294 293 293 294 293 293 294 292 287 284 284 285 286 287 287 286 284 282 281 280 279 278 278 278 277 276 275 275 274 274 274 273 273 273 273 272 271 271 270 270 269 269 268 267 266 266 265 265 265 264 264 263 263 262 261 261 261 260 260 260 260 259 259 258 257 257 257 257 257 257 257 256 256 256 256 256 257 257 258 259 259 260 261 261
290 292 293 292 292 293 293 293 294 293 287 284 284 286 284 284 284 282 280 280 280 279 278 277 277 277 276 275 275 274 274 273 273 273 272 272 272 271 270 270 269 269 268 268 267 266 266 265 265 264 264 264 263 263 262 261 261 260 260 260 260 259 259 259 258 257 257 256 256 256 256 256 256 256 256 256 256 257 257 258 258 259 259 260 261 261
289 290 292 292 291 292 292 291 291 289 286 284 284 284 281 280 280 280 279 279 279 278 277 276 276 276 276 275 274 274 273 272 272 272 271 271 271 270 270 269 269 268 268 267 266 266 265 264 264 264 263 263 262 262 261 260 260 260 260 260 259 259 258 258 257 257 256 256 256 256 255 255 255 256 256 256 256 257 257 258 258 259 259 260 261 261
288 287 288 290 290 288 288 288 288 286 284 284 284 282 279 279 280 280 279 278 278 278 277 276 276 275 275 274 273 273 272 272 271 271 270 270 270 270 269 268 268 267 267 266 265 265 264 264 263 263 263 262 262 261 260 260 260 259 259 259 259 258 258 257 256 256 256 255 255 255 255 255 255 256 256 256 257 257 258 258 259 259 260 260 261 261
286 285 286 288 287 285 286 286 285 285 284 283 283 281 279 279 279 279 278 277 277 277 277 276 275 274 273 273 272 272 271 271 270 270 270 270 269 269 268 267 267 266 266 265 265 264 263 263 263 263 262 262 261 260 260 259 259 259 259 258 258 257 257 256 256 255 255 255 255 255 255 255 255 256 256 257 257 257 258 259 259 259 260 261 261 262
286 285 285 286 285 285 286 286 284 283 283 283 283 281 278 278 279 278 277 277 276 276 276 274 273 273 273 272 272 271 271 270 269 269 269 269 269 268 267 267 266 266 265 264 264 263 263 263 262 262 262 261 260 260 259 259 259 259 258 258 257 257 256 256 255 255 255 255 255 255 255 255 256 256 257 257 257 258 258 259 259 259 260 260 261 261
286 286 285 284 283 284 286 285 283 282 282 282 281 279 278 278 278 277 277 277 276 275 274 273 273 272 272 271 271 270 270 269 269 269 268 268 268 267 266 266 265 265 264 264 263 263 262 262 262 262 261 260 260 259 259 259 258 258 258 257 257 256 256 255 255 255 254 254 254 255 255 255 256 256 257 257 258 258 258 259 259 259 260 260 261 261
285 285 284 283 283 283 284 284 282 282 282 282 281 279 277 277 277 276 276 276 275 274 273 272 272 272 271 271 270 269 269 268 268 268 268 267 266 266 265 265 264 264 263 263 262 262 262 262 261 261 260 260 259 259 259 258 258 258 257 257 256 255 255 255 254 254 254 254 254 255 255 255 256 256 257 257 258 258 258 258 259 259 260 260 261 261
284 284 283 283 282 282 283 282 281 281 281 281 279 278 277 277 276 275 275 274 273 273 272 271 271 271 270 270 269 269 268 268 268 268 267 266 265 265 265 264 264 263 263 262 262 261 261 261 261 260 260 259 259 258 258 258 258 257 257 256 255 255 255 254 254 254 254 254 254 255 255 256 256 257 257 257 257 258 258 258 258 259 260 260 261 261
283 283 283 283 282 282 282 281 280 279 279 279 278 277 277 276 275 274 274 273 272 272 272 271 270 270 270 269 269 268 267 267 267 266 265 265 265 264 264 263 263 262 262 261 261 261 261 261 260 259 259 259 258 258 258 257 257 257 256 255 255 255 254 254 254 254 254 254 254 255 255 256 256 257 257 257 257 257 258 258 258 259 259 260 261 261
Wind_Speed
2 0 2 4 6 6 5 5 6 5 2 2 2 2 4 5 6 5 4 4 3 3 5 8 8 9 11 13 10 7 5 6 7 9 8 8 8 8 8 8 8 8 7 14 23 22 20 19 16 14 12 10 9 8 8 7 7 6 6 7 9 10 12 13 15 17 19 20 22 23 25 26 28 29 29 30 31 31 32 32 32 32 32 32 32 31
1 2 6 7 7 5 3 1 0 2 2 2 2 3 5 4 6 5 3 4 1 2 5 6 5 9 11 11 8 5 7 7 6 9 9 10 10 9 10 11 9 7 7 13 18 19 20 18 15 14 13 13 11 10 9 9 8 7 6 7 8 9 11 13 14 16 18 20 22 23 25 26 28 28 29 30 31 32 32 32 33 33 33 33 33 32
2 5 8 6 3 2 2 2 4 2 1 2 1 0 4 4 4 4 3 4 1 2 5 5 5 9 11 7 7 6 8 6 6 10 10 11 12 10 9 10 10 10 9 10 11 15 19 16 14 14 14 15 13 11 11 10 9 7 7 7 8 8 9 11 13 15 17 20 21 23 25 26 27 27 27 29 29 30 31 32 33 33 33 33 33 33
3 5 5 2 3 4 3 2 4 4 2 1 1 1 4 4 2 3 3 3 2 3 4 5 6 8 6 5 7 6 7 8 9 12 11 11 11 9 9 9 10 10 9 9 9 11 17 18 17 16 15 14 13 11 10 11 11 11 10 10 10 9 10 10 11 13 16 18 19 21 23 24 24 25 25 25 25 26 28 30 31 32 32 33 34 34
6 5 1 2 3 1 2 4 3 2 4 3 3 4 4 4 2 4 3 3 3 4 3 4 5 5 2 6 6 5 7 9 10 12 12 10 9 9 9 9 9 9 8 8 8 8 13 17 17 15 13 11 11 10 9 10 12 12 14 15 15 14 14 13 12 13 14 17 18 20 21 22 22 23 23 24 25 25 26 28 29 30 32 32 33 33
6 4 1 2 2 2 1 4 2 3 1 4 3 5 5 3 2 3 4 5 5 4 3 3 3 5 3 5 6 4 7 8 8 10 11 9 9 9 9 9 8 8 7 7 8 9 12 14 14 12 10 9 9 8 8 10 11 13 14 16 17 17 17 17 15 14 15 16 18 21 22 22 23 24 25 26 28 29 28 29 30 30 30 31 33 34
3 2 3 3 2 3 3 3 4 5 4 3 3 5 4 3 1 4 4 4 1 2 2 2 2 4 5 2 4 5 8 8 7 9 9 8 8 8 8 7 7 7 7 7 7 8 10 11 10 8 7 7 7 6 6 8 10 12 13 14 17 17 18 18 18 17 17 17 18 20 22 23 24 24 26 28 29 30 30 30 30 30 31 32 33 34
0 4 5 4 4 2 1 2 3 5 6 3 4 4 1 2 3 3 2 1 3 2 4 2 4 3 5 3 2 6 9 8 8 8 8 7 8 7 7 7 7 6 6 6 6 5 7 8 8 7 6 6 6 5 6 7 8 11 11 13 15 16 17 18 18 17 18 18 19 19 21 23 24 26 28 29 29 30 30 30 30 30 31 32 33 35
0 2 1 2 2 1 3 4 3 3 3 5 5 3 3 3 3 1 2 2 2 2 5 5 3 3 4 2 1 4 8 7 7 7 7 7 7 7 7 7 7 6 5 5 5 5 6 7 7 7 7 7 7 7 7 7 8 10 10 12 15 15 17 18 18 17 16 17 18 18 19 22 24 26 28 28 29 29 29 30 31 30 30 31 32 34
1 1 4 4 2 3 4 4 2 3 1 5 2 2 3 1 2 2 3 2 2 2 3 6 1 2 3 3 1 3 5 5 4 5 5 6 6 6 7 7 6 6 6 5 6 7 9 11 12 12 12 12 10 8 8 8 9 10 12 14 16 17 18 19 19 17 16 16 16 16 18 20 23 25 26 27 27 27 28 29 30 31 31 30 31 33
2 0 2 3 2 4 2 3 2 3 3 2 3 3 4 4 2 2 2 3 4 2 5 6 2 4 1 3 1 2 1 5 5 5 5 5 6 6 6 6 6 6 6 5 6 9 11 14 16 18 20 21 18 12 9 9 10 12 16 17 18 19 20 21 20 17 17 17 16 15 17 19 21 23 24 26 26 26 27 28 29 30 30 30 29 30
4 3 0 1 1 1 1 3 2 2 2 3 4 3 4 4 3 4 4 4 3 3 5 5 1 5 1 2 2 3 2 5 6 5 5 5 6 5 6 6 6 5 5 6 6 7 11 14 17 20 23 26 27 19 9 10 13 15 19 19 20 23 24 22 20 19 19 18 17 18 20 22 22 20 21 23 24 25 25 27 29 29 30 30 28 27
3 1 2 2 2 2 3 3 5 5 5 4 3 4 4 3 3 3 3 2 1 4 3 2 4 2 2 0 3 5 6 6 5 5 6 6 5 5 6 5 6 6 5 6 6 7 9 12 16 20 22 27 31 21 11 15 19 20 23 23 25 26 25 23 22 22 22 22 22 24 26 27 24 21 19 20 21 21 22 24 27 28 29 30 29 27
4 4 3 2 2 2 3 2 2 3 3 4 2 3 3 2 2 3 3 2 2 4 3 1 3 1 1 3 2 4 6 5 5 5 4 5 6 6 6 5 6 8 7 6 7 6 8 13 17 20 23 26 26 19 18 23 24 24 26 26 25 25 23 23 24 24 25 25 26 27 28 28 26 24 22 20 20 19 19 20 23 25 27 28 30 30
1 3 2 1 1 2 2 1 3 2 2 3 2 4 3 2 2 3 2 1 3 4 4 2 0 1 2 3 3 5 4 3 4 4 4 6 5 5 5 6 7 8 7 6 7 7 11 17 19 21 23 22 22 23 26 29 30 30 30 27 25 25 25 25 26 26 28 28 28 28 28 28 26 26 25 23 22 21 20 19 20 22 24 25 28 31
1 3 3 1 1 2 1 1 2 3 1 2 1 4 2 3 3 2 3 4 3 2 3 2 0 1 3 3 2 3 5 6 7 7 8 9 7 7 7 7 7 7 7 6 7 8 13 18 20 21 21 23 26 29 30 32 32 33 32 29 28 28 28 29 30 30 30 30 31 31 30 28 25 24 26 26 26 26 25 23 22 22 22 22 24 28
1 3 4 2 2 2 3 2 1 1 1 1 2 1 2 4 5 2 3 2 2 2 3 1 3 2 3 2 1 5 7 7 8 9 9 8 8 8 7 6 7 7 7 7 8 10 14 18 21 23 24 26 29 29 30 32 32 32 32 31 31 31 32 33 33 34 33 33 34 34 33 31 27 25 25 27 28 29 30 29 28 25 23 22 23 25
1 4 5 1 1 2 2 2 3 2 0 2 1 3 2 1 4 3 0 3 4 1 3 1 2 2 1 2 2 5 8 8 8 8 8 8 8 8 8 8 9 8 8 9 11 13 15 19 23 25 26 28 29 29 30 32 33 32 33 32 32 33 33 34 35 35 36 37 37 35 34 33 31 28 28 28 29 31 33 33 33 30 28 25 24 23
1 2 6 2 1 4 1 4 3 5 2 2 2 2 1 2 1 1 1 1 2 1 3 4 3 1 1 1 1 6 8 8 8 8 9 10 10 9 10 11 10 9 10 11 11 11 15 20 24 25 27 29 31 31 32 33 33 34 34 35 35 35 35 35 35 35 36 36 36 35 36 35 33 31 30 31 32 34 34 35 35 35 32 29 27 25
1 1 5 4 1 2 3 3 1 4 4 2 2 3 2 2 2 1 1 2 1 1 2 4 4 4 3 1 4 6 7 8 9 9 10 11 11 11 11 11 10 10 11 12 10 10 14 21 24 26 28 30 31 32 33 34 34 35 36 36 35 35 35 34 35 36 38 38 37 37 37 36 34 32 31 33 35 36 36 37 37 36 35 33 32 28
2 1 3 5 3 3 3 1 2 2 1 2 3 4 3 2 0 1 1 1 3 2 1 1 2 2 3 3 7 8 6 8 9 9 9 10 10 11 12 11 11 11 12 11 8 9 15 20 24 27 29 31 33 34 35 35 35 35 36 35 35 35 35 35 36 38 39 39 38 37 37 37 35 34 35 35 34 34 35 37 37 38 39 38 34 28
2 1 2 4 4 3 3 3 3 3 3 3 3 1 1 0 2 2 3 3 2 2 3 2 1 1 3 5 7 7 7 8 9 9 9 10 10 11 12 12 12 11 10 9 8 11 17 20 23 27 30 32 33 34 34 34 34 34 35 37 37 37 35 35 36 37 37 37 37 38 38 37 35 34 34 33 32 33 35 36 37 38 39 37 32 29
0 2 0 4 4 3 5 5 2 2 3 3 2 1 2 2 3 3 2 3 1 1 2 3 2 2 3 6 8 7 6 7 9 9 9 9 9 10 11 11 12 11 9 9 11 15 19 22 25 29 31 33 32 32 34 34 34 36 38 38 37 35 35 35 36 37 38 38 39 40 39 37 36 36 36 36 37 39 40 40 40 39 36 34 33 33
1 2 1 4 4 3 4 4 3 1 2 3 2 3 2 2 2 3 4 3 1 2 2 1 1 3 5 6 7 6 6 7 9 9 9 9 9 9 11 13 13 10 9 10 12 17 22 24 27 28 29 29 31 33 35 36 37 38 36 35 34 35 38 38 39 40 40 40 41 41 39 38 39 42 43 44 44 45 46 44 41 38 35 35 37 38
2 0 2 3 5 6 6 5 5 4 3 3 1 3 3 4 4 2 1 2 1 2 1 1 4 3 4 5 7 8 9 10 10 11 10 10 10 10 12 14 12 9 9 10 12 16 20 23 25 25 26 28 31 34 35 36 37 35 34 35 36 38 41 41 41 40 41 42 41 40 39 39 40 44 46 46 46 45 44 41 38 36 35 35 37 38
1 1 2 3 0 2 3 3 3 3 3 2 2 4 4 5 5 3 1 3 1 2 2 1 4 4 5 10 14 16 16 16 15 15 13 11 11 12 13 13 9 8 11 13 14 15 18 21 23 25 26 29 31 33 33 35 36 36 38 38 37 38 41 41 41 41 43 43 41 39 39 39 40 43 43 42 41 40 40 40 38 38 38 36 36 36
2 0 1 4 5 4 5 6 3 1 3 3 3 5 4 3 4 4 4 2 1 1 3 2 3 7 8 11 15 15 15 15 15 15 14 12 12 14 14 11 9 11 12 14 14 15 16 19 22 26 28 30 33 33 33 35 37 39 40 40 39 40 39 38 41 44 45 43 40 39 39 39 41 43 46 46 42 40 41 40 38 37 37 36 35 35
4 2 1 2 4 6 6 7 4 3 2 2 4 5 5 6 6 7 5 2 1 1 3 4 6 9 7 8 11 12 12 12 12 13 13 12 13 14 11 10 12 13 13 14 14 14 15 16 20 26 29 31 34 34 36 38 38 38 38 39 41 40 38 41 46 47 46 42 39 38 38 39 43 49 52 49 42 37 37 37 37 38 39 39 37 34
4 2 3 1 4 6 7 8 3 4 4 5 7 6 6 8 8 7 3 3 4 1 5 6 8 7 5 9 11 11 12 12 12 12 11 12 15 13 11 12 13 14 15 16 15 15 15 16 20 24 27 30 33 34 36 39 38 38 39 39 39 39 41 46 48 47 45 41 36 36 40 44 51 55 52 44 37 34 34 36 39 42 43 43 40 36
3 2 3 2 4 7 7 5 3 8 6 7 8 7 7 7 8 6 3 4 5 3 5 6 8 3 4 10 12 11 11 11 10 10 12 16 16 13 13 15 15 16 16 16 16 15 16 18 20 22 26 29 31 33 37 39 39 40 40 39 38 40 44 48 49 46 41 37 36 39 45 51 55 54 47 39 34 33 34 37 40 42 42 42 41 38
1 1 2 1 2 6 5 6 8 9 9 9 9 8 8 9 9 7 6 6 5 4 5 7 6 2 4 9 12 10 10 10 11 13 16 17 14 13 15 16 16 17 17 17 17 17 17 19 22 24 27 29 30 34 37 38 39 40 39 38 39 42 46 49 47 40 35 36 41 47 51 53 53 50 44 36 32 32 35 39 40 41 41 40 40 40
2 2 3 4 3 5 2 7 8 8 10 10 9 9 8 9 8 6 5 5 4 4 6 7 5 4 6 10 11 11 12 13 12 14 16 14 11 12 13 15 17 18 18 19 20 18 17 19 23 26 28 30 33 37 38 39 40 39 38 40 41 43 46 46 41 35 37 43 48 50 50 49 49 47 41 34 33 35 37 39 38 38 40 41 41 40
2 1 2 3 2 4 2 3 6 5 4 4 6 6 4 6 7 6 3 5 5 3 4 4 4 6 8 11 14 16 16 13 10 11 12 10 9 12 14 16 17 17 17 19 18 17 17 21 26 28 28 31 35 37 39 40 40 38 39 42 44 44 45 43 38 39 44 47 48 48 48 46 44 40 36 35 37 38 39 39 39 39 40 41 39 37
3 3 1 1 1 4 7 4 4 3 0 2 1 5 3 4 8 9 3 5 5 4 3 3 5 7 10 11 13 15 15 12 11 11 10 6 8 14 17 17 16 16 17 17 15 17 21 25 28 29 31 33 35 37 40 40 38 38 41 43 44 44 43 40 40 44 47 46 46 47 46 43 39 35 36 38 39 40 41 42 43 43 42 40 38 35
3 3 1 0 2 3 4 6 4 0 2 5 3 6 4 2 4 8 2 5 6 6 5 7 8 9 11 11 11 13 15 14 13 11 8 8 12 15 16 15 16 17 16 14 15 20 26 29 29 31 34 35 36 39 41 40 39 42 43 43 43 42 40 40 43 45 44 44 46 46 43 40 38 39 41 43 46 47 47 46 45 44 43 41 38 38
2 2 1 0 1 1 3 5 2 2 1 2 1 7 7 2 6 11 4 3 6 7 7 9 9 10 12 12 12 13 15 16 13 6 4 10 14 14 14 14 16 17 17 17 19 24 30 32 32 32 34 37 39 40 41 41 42 44 45 44 43 40 40 42 43 42 42 44 45 42 39 39 42 45 47 49 50 48 45 43 42 42 41 41 41 41
3 2 2 2 1 2 2 3 2 2 1 3 4 7 6 3 6 9 5 0 5 7 7 9 11 12 13 13 12 13 15 16 10 2 5 10 14 16 16 16 18 20 22 24 28 30 32 33 33 34 35 37 38 39 40 42 43 42 43 43 41 40 41 42 40 40 42 43 40 38 40 45 49 51 50 48 46 43 41 40 41 43 43 42 41 39
4 3 3 2 1 3 3 2 3 1 3 1 4 7 6 3 6 7 5 2 5 10 10 11 12 13 13 13 13 14 14 13 10 6 8 13 17 19 19 20 23 24 25 28 34 35 34 32 33 35 36 36 36 37 38 40 40 40 40 39 39 41 41 39 38 39 41 40 40 43 48 50 49 48 46 44 42 42 44 45 46 46 44 43 43 40
8 4 4 4 2 3 3 1 1 3 4 1 7 10 7 8 10 6 2 2 6 11 12 12 12 13 12 12 13 12 10 10 11 10 12 17 21 20 19 21 25 27 27 32 35 35 34 34 34 35 36 35 36 38 38 38 38 37 37 37 38 38 37 37 39 40 42 44 46 48 49 47 45 44 44 45 46 47 49 49 48 47 46 45 44 42
7 5 5 5 3 3 2 1 2 2 2 5 10 9 8 10 8 4 2 4 7 11 10 9 11 12 11 11 10 9 7 7 10 12 16 21 24 22 22 23 25 27 30 33 35 34 36 36 34 34 35 36 38 40 40 40 39 36 35 37 36 35 34 37 39 41 44 47 47 47 47 45 43 43 44 46 48 49 48 47 46 45 44 44 43 41
4 3 3 4 3 3 2 1 3 1 2 7 11 9 9 9 3 4 4 7 10 11 8 8 11 11 10 9 8 7 6 8 10 14 19 22 21 21 25 28 27 28 30 31 33 35 36 36 34 34 34 35 38 40 40 40 39 37 36 37 35 35 36 39 42 43 46 47 46 47 46 44 43 43 45 46 47 47 46 44 43 42 41 41 40 40
3 3 3 3 2 3 1 1 4 1 2 8 12 8 7 5 2 3 6 7 10 10 8 9 11 10 9 9 7 6 9 10 12 14 17 18 17 19 26 29 29 30 31 31 33 34 35 35 36 36 36 36 38 38 38 39 38 37 36 36 36 38 41 43 45 46 47 47 47 46 45 44 44 46 46 46 45 44 43 42 41 40 39 39 38 37
1 1 3 3 1 2 2 3 2 2 2 9 10 6 5 5 2 5 7 6 7 8 8 9 9 8 9 10 9 9 11 12 12 13 15 16 18 21 24 26 28 29 30 32 34 35 34 34 35 36 37 38 38 38 39 39 38 38 36 36 38 42 44 44 46 46 47 48 46 45 45 47 48 47 46 45 43 41 41 41 40 39 38 37 36 34
2 2 1 3 0 2 2 2 1 1 3 8 7 3 4 4 3 4 5 6 6 6 7 7 8 8 9 11 12 12 12 12 13 14 14 15 18 20 22 25 28 29 30 33 35 35 35 35 36 36 37 37 38 39 40 39 39 39 38 39 42 44 45 46 47 47 46 46 45 46 49 50 48 46 44 43 41 39 39 39 39 38 37 35 34 31
1 1 2 3 1 1 2 2 1 0 2 4 4 4 4 5 5 5 5 5 6 5 5 6 8 10 10 11 13 13 12 13 14 14 14 15 18 20 22 25 28 28 30 33 35 34 35 35 36 37 38 39 40 40 40 39 38 37 39 41 44 45 46 47 48 47 44 44 46 48 49 48 46 45 43 41 39 38 38 38 37 35 34 33 31 28
1 4 1 1 3 4 1 1 2 3 6 7 4 4 6 8 7 6 5 5 6 6 5 7 8 10 12 13 13 11 11 13 14 14 15 17 19 21 24 26 27 28 30 33 34 36 37 36 35 35 37 40 42 42 42 40 37 36 39 42 44 45 46 47 47 46 45 45 47 48 47 45 44 42 41 40 40 38 37 35 34 32 31 30 28 27
3 5 4 2 4 4 0 1 4 7 11 9 4 4 8 8 6 5 5 6 6 7 8 10 11 13 14 14 12 11 12 13 14 14 16 17 19 22 25 26 27 28 30 31 34 37 38 35 34 34 35 39 43 44 43 42 40 40 41 43 44 45 46 45 44 45 47 47 46 45 43 41 40 39 40 40 39 37 35 34 32 31 29 28 27 27
4 4 4 3 4 3 4 3 6 9 10 6 3 5 8 6 4 5 7 8 8 10 12 13 14 15 15 14 13 13 13 13 14 14 16 17 19 21 24 26 27 30 32 33 35 37 36 35 34 34 35 39 43 44 43 42 42 42 43 44 45 47 46 45 44 46 47 45 43 42 40 39 37 37 38 38 37 36 35 34 33 31 29 28 27 27
3 2 2 3 4 4 5 5 8 8 6 2 5 8 7 5 5 6 9 11 11 12 13 14 15 15 15 15 16 15 13 15 18 18 17 18 21 22 24 27 29 31 33 35 37 36 35 34 34 34 36 40 42 43 43 43 43 43 43 44 46 47 45 45 47 47 45 43 41 40 39 38 36 36 36 36 36 36 35 33 32 31 30 29 27 26
2 2 2 3 3 3 4 5 7 6 5 4 8 9 6 6 7 8 9 11 12 12 13 13 14 16 16 15 17 16 14 17 22 22 20 20 23 25 27 28 30 31 33 36 37 37 35 34 33 34 37 39 40 41 42 43 44 44 44 45 46 46 45 46 47 46 43 41 40 39 38 36 36 36 35 35 35 36 35 33 31 29 28 28 27 28
1 1 2 3 3 5 6 5 5 5 6 7 9 8 6 7 9 8 8 10 12 14 15 14 14 14 14 14 15 17 17 20 22 22 21 22 25 26 26 28 29 31 33 36 36 35 35 35 35 37 38 39 40 40 41 42 43 44 46 46 46 46 46 46 45 43 41 40 38 37 36 36 35 35 35 34 35 34 32 33 33 31 30 29 28 31
Wind_Direction
106 16 270 229 232 233 246 229 210 227 215 196 196 211 237 249 275 268 255 269 116 118 256 239 243 266 271 272 287 317 15 53 74 81 75 68 61 57 59 55 64 78 78 71 73 76 74 70 66 62 54 47 48 39 27 20 9 349 328 311 304 303 296 288 278 269 264 259 257 254 253 255 258 260 261 262 264 263 264 265 264 262 262 261 260 260
85 253 252 227 229 240 254 246 133 304 334 341 255 270 284 247 256 274 263 278 58 99 268 261 262 272 272 283 314 2 61 58 67 85 79 72 68 60 61 58 60 68 70 66 65 67 70 67 65 66 61 55 53 47 41 33 25 9 352 337 323 315 303 296 291 285 277 270 267 264 264 266 266 265 265 266 268 269 269 267 265 263 261 260 259 258
323 252 248 239 257 327 342 47 61 26 359 345 322 284 290 264 264 297 331 326 20 143 264 303 316 284 289 321 5 41 79 70 62 83 83 78 75 66 67 65 64 64 58 57 56 61 68 69 71 74 71 63 56 54 52 45 38 27 12 357 339 328 316 306 300 294 289 284 281 277 275 275 274 273 273 274 275 275 272 270 268 265 262 259 258 257
283 251 244 271 6 29 344 346 57 34 10 290 230 160 263 284 312 285 306 315 258 228 267 322 325 291 306 39 51 40 76 80 67 76 74 75 79 75 74 71 71 71 63 61 57 60 66 67 70 73 68 56 48 48 45 38 36 30 24 14 1 352 338 323 311 302 296 293 290 287 284 280 277 278 278 277 277 275 272 271 268 265 262 260 258 256
245 245 238 18 7 62 314 326 24 35 335 296 216 200 243 276 274 238 270 311 302 311 317 342 333 313 359 88 85 43 66 73 67 75 71 66 73 73 71 65 66 72 70 71 65 60 64 65 68 70 64 51 44 44 35 27 24 20 18 14 10 5 357 347 331 315 306 301 298 295 292 285 280 278 278 276 277 276 274 272 270 268 264 260 258 256
254 249 112 59 10 59 67 314 294 164 253 310 244 206 208 199 265 289 333 2 8 345 337 38 4 312 341 93 110 72 68 71 64 73 73 68 66 66 65 60 61 65 67 71 72 71 69 70 74 71 64 55 49 46 32 22 16 10 7 6 6 3 358 352 344 336 325 316 309 304 299 293 286 283 282 282 284 285 283 281 278 274 268 262 260 258
275 340 63 82 50 32 39 297 271 150 131 298 238 185 169 131 334 316 353 23 21 265 270 76 126 263 312 23 127 101 81 75 67 69 72 72 70 70 69 64 64 61 60 63 64 72 77 79 79 72 61 47 39 34 16 8 9 7 2 359 359 356 353 348 345 346 342 333 322 312 304 298 292 288 288 291 293 293 292 290 286 280 273 266 261 259
268 13 22 48 57 32 339 270 266 129 118 259 224 163 163 336 308 300 66 128 230 264 304 300 153 202 303 313 160 112 89 72 64 66 65 69 74 78 78 72 71 69 72 72 62 67 81 79 73 61 43 18 5 351 339 343 353 360 358 354 352 350 348 345 341 341 342 339 330 321 312 304 298 294 294 298 299 299 299 297 293 288 281 272 264 259
239 31 358 96 67 317 220 231 252 109 115 250 222 198 267 275 262 227 128 212 252 19 321 301 133 157 281 283 94 76 83 77 69 73 69 73 78 80 81 74 70 69 68 76 71 62 60 53 44 31 11 352 338 325 320 323 332 343 348 345 344 343 341 341 339 334 334 334 329 323 317 309 305 301 299 301 301 302 303 301 299 296 290 281 269 261
305 193 184 142 151 244 234 243 230 114 233 252 218 281 312 322 200 154 143 185 26 45 268 279 193 145 274 238 156 41 84 107 96 85 76 76 81 82 83 78 71 61 50 51 48 40 34 27 19 8 353 337 321 308 308 313 320 336 342 339 339 340 338 337 335 328 326 328 323 319 317 312 308 305 302 300 300 302 304 303 303 302 298 291 278 267
329 204 168 118 185 222 234 270 214 148 245 303 28 344 353 29 72 76 108 112 53 349 255 272 249 120 332 255 196 354 103 138 119 89 68 66 75 78 81 78 72 64 50 36 22 24 25 20 16 8 356 343 326 305 302 320 328 339 339 335 333 334 333 334 333 327 323 327 323 318 317 311 307 306 302 298 297 300 302 302 303 305 303 299 288 272
355 31 289 325 280 177 48 331 326 19 9 42 48 20 13 3 24 29 1 48 68 272 266 292 340 110 125 283 29 21 55 110 115 107 95 87 82 83 84 76 69 61 45 35 18 10 16 16 10 3 358 350 334 315 312 341 346 347 345 339 336 336 335 336 337 331 325 325 321 315 312 308 305 304 300 295 294 297 300 300 302 303 303 301 294 277
338 334 298 322 337 57 64 357 336 360 29 47 46 47 38 352 2 8 329 357 160 243 260 6 43 94 193 323 53 72 81 94 111 118 121 114 104 93 83 76 65 44 23 25 18 4 11 9 1 356 351 345 337 333 356 9 1 358 354 350 347 344 343 343 342 337 332 327 320 314 310 305 300 298 296 293 294 296 299 301 302 302 301 299 295 283
338 315 333 10 340 23 82 62 336 330 4 15 39 83 81 48 10 306 289 332 290 259 257 75 64 258 193 59 70 113 114 126 119 115 122 111 111 106 83 74 61 32 15 20 14 5 6 360 355 350 344 343 349 3 20 12 3 358 355 352 351 350 350 349 345 342 339 335 330 325 320 313 303 296 295 292 293 295 298 300 300 299 299 296 292 288
349 304 324 72 299 11 62 149 166 184 310 296 207 130 121 135 148 239 234 223 265 280 293 308 6 238 144 129 186 159 133 116 85 70 57 56 72 90 63 46 46 27 13 16 12 7 2 355 349 343 345 360 16 22 17 8 2 358 355 353 353 351 349 346 342 340 338 335 332 328 326 322 309 296 289 287 287 289 291 295 296 296 296 295 294 291
134 257 256 269 269 96 70 256 143 100 355 271 161 89 99 185 159 187 213 210 231 321 317 286 169 30 96 132 181 96 69 56 54 47 42 35 32 47 37 26 33 20 8 14 14 7 358 350 346 347 2 21 22 15 10 6 3 358 354 351 349 346 342 338 335 332 329 326 323 320 319 320 315 300 288 284 286 288 289 289 290 290 292 295 297 294
31 276 273 336 358 110 161 236 19 54 288 332 53 80 225 181 135 130 274 282 37 36 288 220 116 71 71 101 356 35 49 47 48 45 41 35 30 31 25 21 21 11 11 17 8 357 351 351 357 7 18 19 11 7 4 1 358 354 351 347 344 341 337 335 332 328 324 320 316 314 310 310 312 307 295 288 287 290 290 288 286 285 287 291 293 292
131 282 290 2 345 273 193 116 23 345 139 94 116 252 265 98 100 101 39 347 18 27 267 335 98 162 144 144 327 18 43 40 35 38 35 31 29 25 21 16 10 12 15 8 358 351 355 7 15 16 13 7 3 1 357 354 352 353 351 348 344 340 338 336 334 332 330 325 319 315 311 309 308 307 304 299 294 291 289 285 282 280 282 286 289 288
105 302 298 307 186 283 341 67 12 331 346 130 187 265 38 67 352 9 74 348 348 314 277 316 346 51 67 120 33 33 44 39 24 26 27 22 21 20 15 8 5 12 6 355 352 355 9 17 14 8 3 360 358 356 353 354 354 355 352 346 341 337 335 335 334 334 332 327 322 317 313 310 305 303 303 303 301 296 288 282 279 275 275 279 283 281
38 97 286 291 220 284 2 51 15 321 332 1 13 355 29 133 176 181 144 166 181 263 271 309 349 44 16 344 91 66 50 45 28 21 22 16 16 15 8 2 2 6 358 350 354 8 17 13 4 1 359 356 357 357 356 357 354 349 342 338 335 334 333 333 332 331 328 324 319 315 312 308 303 301 301 301 300 296 290 285 279 272 270 273 275 273
1 115 259 294 326 336 345 339 179 175 311 11 34 8 343 340 92 103 332 134 137 188 222 324 353 67 19 17 77 68 48 50 36 23 17 8 10 11 4 360 1 358 350 347 360 16 11 4 0 360 359 358 358 356 354 350 344 339 336 336 335 333 331 330 329 328 326 324 321 318 314 309 303 299 299 299 299 298 298 294 285 275 270 268 267 267
353 121 246 298 327 327 282 246 198 166 183 162 117 100 189 127 61 56 314 314 79 139 174 151 225 181 68 58 68 54 43 48 34 23 13 2 4 6 360 359 356 345 341 351 12 13 4 2 1 360 359 357 354 350 347 343 339 337 337 335 332 329 329 331 333 333 332 330 329 326 323 318 312 309 308 310 313 315 315 311 302 289 275 267 266 269
338 97 357 284 273 265 267 266 249 189 175 140 105 79 143 109 91 116 236 279 359 309 214 144 185 202 109 77 66 50 40 42 31 20 10 0 0 360 356 355 345 337 347 6 10 6 3 2 360 357 354 352 349 348 345 342 340 338 334 332 332 333 336 338 338 336 333 331 330 328 327 325 322 322 322 322 321 319 317 314 309 299 283 272 272 273
359 87 29 293 291 315 314 310 312 321 96 80 21 8 67 77 84 146 184 184 145 293 290 137 227 177 126 85 65 53 34 35 26 13 7 359 354 357 356 350 342 344 3 11 7 4 2 358 354 352 351 351 351 348 345 342 340 336 335 338 340 340 339 337 335 332 330 327 325 323 323 322 322 323 322 320 317 315 313 310 307 300 290 281 278 272
327 93 49 356 344 348 349 350 336 335 29 67 24 11 47 63 47 44 64 71 94 275 339 177 234 198 119 62 37 27 18 19 15 9 7 358 352 356 355 347 344 355 8 8 6 2 357 352 351 352 354 354 351 346 343 341 338 337 339 340 339 337 335 333 332 330 329 326 323 322 322 322 323 323 320 317 315 314 313 310 306 302 297 292 285 274
275 214 95 92 67 313 305 293 289 310 347 15 40 19 34 63 51 34 45 63 130 285 352 185 235 286 357 13 11 9 7 3 359 360 358 355 356 353 346 342 348 5 7 4 1 355 351 352 353 355 355 352 348 343 341 341 339 338 336 334 334 334 333 332 332 331 329 326 324 324 325 326 326 324 320 316 315 316 315 313 308 305 302 298 289 277
81 323 102 143 184 211 229 244 247 40 350 333 6 6 12 41 45 74 87 64 199 288 321 249 277 325 347 9 6 2 1 354 349 350 348 350 353 345 339 344 360 8 3 357 354 350 351 354 354 353 351 348 345 342 341 341 338 335 332 332 333 333 333 333 333 331 328 325 324 325 327 328 328 327 323 317 314 317 317 315 313 312 310 307 298 281
75 338 318 164 220 230 234 255 291 31 25 41 53 27 17 23 36 71 78 14 24 46 292 294 339 337 342 11 5 353 353 349 344 344 344 345 342 338 343 358 4 1 354 351 351 352 353 354 351 349 347 345 342 340 339 338 335 333 333 333 333 333 335 335 332 329 327 324 323 325 326 327 326 325 319 312 309 314 317 318 320 320 319 318 313 299
101 255 248 213 270 270 269 279 303 83 77 65 62 51 48 47 46 59 60 22 44 38 262 299 333 328 344 5 358 352 349 344 340 339 339 338 337 343 360 4 358 353 350 350 352 353 353 349 346 345 343 341 339 338 339 337 334 334 334 333 333 334 334 333 331 327 324 322 323 326 327 326 324 321 316 308 307 314 317 319 321 319 316 316 316 312
115 260 248 221 288 293 298 316 70 106 92 56 47 47 56 58 51 47 11 355 14 315 278 321 329 320 35 6 348 346 345 336 334 337 340 340 343 354 3 357 352 350 349 350 350 349 346 342 342 342 340 339 339 340 340 336 335 335 333 333 334 333 333 333 328 323 322 323 327 329 328 325 322 320 315 309 309 315 316 318 318 314 312 312 312 311
83 293 289 64 341 306 330 41 76 99 94 68 41 31 41 41 33 23 355 355 5 324 315 349 339 313 28 358 336 333 338 338 345 348 344 342 349 360 356 349 349 348 347 348 345 341 339 341 344 343 340 340 341 342 339 335 334 333 332 333 333 332 333 331 325 323 327 331 332 329 326 324 321 318 313 309 312 316 316 315 313 309 308 310 310 308
52 317 334 46 28 300 352 81 93 100 91 72 36 19 35 41 23 349 341 12 9 321 331 4 2 328 335 338 328 330 343 348 353 351 341 338 349 357 349 347 348 347 347 345 339 337 341 346 346 342 340 342 343 341 338 335 333 331 332 333 332 332 332 329 327 331 334 332 329 327 325 322 319 315 314 315 320 322 320 317 313 310 309 308 305 303
79 47 337 36 26 286 304 101 125 116 81 43 9 357 24 57 24 337 353 45 26 357 4 4 339 320 326 334 334 336 341 346 351 346 334 333 349 351 349 350 348 345 342 337 333 339 347 347 342 339 340 343 341 338 336 335 332 331 332 333 331 331 332 329 329 333 331 327 326 325 323 320 316 317 322 327 327 326 326 323 320 317 314 312 310 310
54 78 265 317 86 274 302 357 95 114 277 236 27 2 353 82 34 353 3 69 45 47 47 333 320 333 338 338 337 334 331 337 345 336 327 347 5 352 348 347 342 338 336 334 340 349 347 342 339 338 339 340 338 336 335 334 332 331 331 331 330 329 329 328 329 329 326 324 324 324 321 318 317 322 327 328 325 324 323 320 317 315 313 312 315 317
25 33 288 259 121 250 316 19 43 355 232 188 139 26 359 153 37 4 55 109 50 30 17 350 341 344 341 337 339 333 326 331 335 325 327 13 13 353 343 339 337 337 337 342 351 350 344 340 339 339 339 338 337 336 335 334 334 331 330 330 329 327 328 328 328 326 325 324 324 321 319 319 323 326 325 323 322 319 317 314 312 310 309 308 309 309
61 16 321 355 75 323 10 22 1 203 152 173 98 13 4 359 6 1 11 97 39 15 3 350 341 344 345 341 341 338 327 325 324 318 2 20 7 351 341 338 339 341 344 350 352 347 342 339 338 338 337 335 336 336 335 334 334 331 329 328 328 327 329 329 327 326 325 323 320 319 321 326 327 325 322 320 317 313 312 313 315 314 313 311 307 304
96 70 20 16 32 75 45 328 301 171 86 18 7 353 355 14 353 334 304 237 36 17 359 350 345 348 349 342 341 341 330 322 317 325 49 17 358 347 342 343 345 343 343 347 345 341 339 336 335 335 335 334 334 335 334 333 332 331 328 327 327 328 329 328 325 325 325 322 320 324 327 328 324 319 315 314 312 311 313 318 319 317 316 313 310 307
51 59 67 60 32 65 64 357 5 263 245 344 352 321 320 313 301 294 255 238 9 6 2 1 355 349 347 342 343 344 337 329 322 328 358 356 348 345 343 345 347 343 342 344 341 337 336 335 335 334 333 333 333 333 332 331 331 331 328 327 327 328 327 326 325 326 326 323 324 325 324 321 318 314 311 311 314 317 318 318 316 313 311 309 308 307
27 31 71 77 41 33 58 50 332 244 214 2 334 317 314 298 294 298 235 239 5 11 9 8 356 345 343 343 345 346 345 336 322 323 342 344 339 342 345 345 344 342 342 341 337 333 333 334 334 333 333 333 332 332 332 331 331 332 329 327 327 326 325 325 326 327 326 324 323 322 320 319 317 315 314 316 317 316 315 313 311 309 307 305 303 302
20 15 41 53 21 357 46 66 288 225 152 360 330 315 304 294 305 8 324 291 9 21 17 9 349 339 344 346 344 346 346 333 316 319 333 332 329 336 343 341 340 341 339 336 333 332 333 334 334 335 335 334 332 332 333 333 332 332 329 327 326 324 324 325 326 326 325 323 322 321 320 319 318 316 316 315 314 312 310 309 307 306 305 303 301 300
11 356 33 58 24 354 41 9 304 229 104 349 329 317 312 305 336 52 321 311 352 2 7 8 346 338 346 346 340 336 326 318 313 315 323 325 326 334 338 336 336 336 334 332 333 333 333 333 335 335 333 332 332 332 334 334 332 330 329 328 325 324 325 326 326 326 326 324 323 322 320 319 318 317 315 314 313 311 309 307 306 305 303 301 300 299
7 345 2 43 11 344 359 326 312 264 72 355 331 320 343 355 9 346 323 329 344 343 351 359 344 339 343 336 327 316 309 312 315 315 320 327 331 333 334 334 334 332 332 333 334 335 335 334 333 333 332 333 333 333 335 335 332 329 329 327 326 326 327 327 328 327 326 324 323 322 321 320 319 318 316 314 313 311 308 307 306 304 303 302 300 298
24 9 336 329 330 348 357 5 339 266 343 356 339 331 30 41 335 313 326 334 343 345 348 346 340 339 337 327 320 317 313 315 320 321 323 329 331 330 331 334 333 330 332 334 333 335 337 334 331 331 331 333 334 335 337 336 332 329 328 327 327 328 328 327 328 328 326 324 323 322 322 321 319 318 317 315 314 311 308 307 307 305 304 302 299 297
50 90 324 294 344 65 351 343 359 246 322 353 357 22 48 24 329 333 340 335 345 353 343 333 334 338 337 330 326 325 323 323 325 328 329 330 331 330 330 332 332 331 332 333 332 335 337 334 330 329 330 332 334 336 337 336 332 328 327 327 329 330 329 328 328 327 326 325 324 322 322 321 320 319 318 316 315 312 309 309 308 306 304 301 298 295
29 52 221 229 297 340 223 241 350 325 319 354 24 70 47 3 358 16 7 340 340 341 334 335 336 337 341 336 328 326 326 326 327 330 331 329 328 330 330 331 332 332 332 331 331 334 335 333 329 328 329 332 335 336 336 335 332 327 326 329 331 331 330 329 328 327 325 324 324 323 322 321 321 320 319 318 317 314 311 310 308 306 305 303 299 295
359 352 334 193 331 327 229 181 347 336 340 354 29 63 26 8 9 19 13 349 337 334 342 351 345 340 341 336 328 325 327 327 327 329 330 327 327 331 332 330 331 332 332 331 332 334 333 331 330 330 330 331 333 335 335 334 332 328 327 329 331 331 331 330 328 326 325 324 324 324 323 322 321 320 320 320 319 317 314 312 311 310 309 308 306 305
1 16 29 27 342 335 292 81 20 354 339 341 7 30 13 12 17 18 3 339 334 347 356 355 350 342 337 332 327 325 328 331 329 328 328 329 329 331 331 330 331 333 332 331 332 332 332 331 330 331 331 331 332 334 334 333 333 332 330 331 333 332 331 330 328 327 326 325 324 324 324 323 320 320 321 322 322 321 320 319 318 315 313 312 310 308
336 26 35 2 331 302 270 317 5 344 317 319 29 19 4 10 14 2 347 337 347 1 357 350 348 341 333 331 331 329 330 332 330 326 328 330 330 330 330 330 331 332 331 330 331 331 331 330 329 330 331 331 331 333 333 332 332 333 333 334 335 334 332 331 330 328 326 325 325 325 325 323 321 320 321 323 324 324 323 323 321 317 314 312 308 304
326 17 8 316 303 284 278 321 357 336 297 320 24 4 356 5 357 346 348 353 360 358 347 343 345 340 332 331 334 334 332 331 330 331 332 332 330 329 329 330 332 331 329 329 329 329 329 328 329 331 331 330 330 332 332 331 332 334 335 336 336 335 334 333 331 329 327 327 327 327 326 325 323 323 323 324 326 325 325 326 325 321 319 317 315 312
352 17 353 327 312 297 305 340 357 336 296 312 346 348 353 0 351 349 359 3 357 348 342 340 339 336 335 335 337 339 334 328 330 334 334 331 328 328 329 330 331 330 328 327 327 327 328 329 331 332 330 329 330 331 331 331 332 335 337 337 337 337 336 334 333 330 328 329 328 328 327 326 325 326 327 328 328 327 326 329 331 329 327 326 326 324
2 288 319 327 296 294 317 341 352 329 298 310 332 339 346 359 1 3 5 357 347 345 348 343 334 333 337 339 341 341 333 328 331 335 333 328 326 326 328 330 330 327 326 326 326 327 328 332 334 333 331 330 331 332 331 332 334 336 337 338 339 338 337 336 334 330 328 328 328 328 328 327 326 328 330 330 331 330 328 330 333 336 338 337 336 335